Location: Gollag?dem
(16.8053°N, 80.8024°E)
Time: 17:50:08
(UTC+00:00)

ATLAS 2AS CENTAUR R/B - Pass Details

Date: 13 August 2020
Orbit: 938 x 1273 km, 63.7° (Epoch: 18 September)

Event Time Altitude Azimuth Distance (km) Brightness Sun altitude
Exits shadow 22:10:04 17° 166° (SSE) 2,672 4.6 -29.9°
Maximum altitude 22:15:17 36° 110° (ESE) 1,851 4.2 -28.8°
Drops below altitude 10° 22:22:20 10° 46° (NE) 3,255 6.1 -27.3°
Sets 22:25:24 0° 39° (NE) 4,231 6.8 -26.6°
